Find Aerocube 16B

NORAD ID: 59291 Int'l Des: 2024-053 Owner: AERO Country: US operational
LEOCIRCULAR

当前视图

正在加载3D地球...

关于 Aerocube 16B

正在加载描述...

即将过境

Passes for default location (London). Set your location on the main map for personalized predictions.

高度历史

Loading altitude history...

两行轨道根数

1 59291U 24053D 26149.78900651 .00018733 00000-0 42282-3 0 9991
2 59291 49.9927 58.4562 0002222 248.0313 112.0415 15.43195967118348
Epoch: May 29, 2026 • Age: 22 hours

当前状态

高度 436.4 km
速度 7.65 km/s
星下点 13.93°N, 72.67°E
发射日期 Mar 21, 2024
运行时间 2.1 years
类型 other

技术详情

分类 Payload
质量 10.00 kg
干质量 10.00 kg
总质量 10.00 kg
长度 2.00 m
直径 1.00 m
跨度 5.00 m
形状 Box + pan
制造商 AERO
平台类型 Cubesat 6U
阶段状态 In Orbit
所有者/国家 AERO/US

Most Searched